Flagstaff, AZ

4:02 PM MST on June 25, 2017 (GMT -0700)
Flagstaff Pulliam

Weather History for KFLG - November, 2013

Change the Weather History Date:

Tuesday, November 12, 2013

  Actual Average Record
Temperature  
Mean Temperature 44 °F 38 °F  
Max Temperature 61 °F 52 °F 70 °F (1967)
Min Temperature 27 °F 24 °F 3 °F (1898)
Degree Days  
Heating Degree Days 21 27  
Month to date heating degree days 303 302  
Since 1 July heating degree days 1236 1185  
Cooling Degree Days 0 0  
Month to date cooling degree days 0 0  
Year to date cooling degree days 148 117  
Moisture  
Dew Point 17 °F    
Average Humidity 41    
Maximum Humidity 63    
Minimum Humidity 18    
Precipitation  
Precipitation 0.00 in 0.06 in 2.00 in (2003)
Month to date precipitation 0.00 0.68  
Year to date precipitation 21.22 18.91  
Snow  
Snow 0.00 in 0.30 in 18.40 in (1985)
Month to date snowfall 0.0 2.8  
Since 1 July snowfall 0.6 4.3  
Snow Depth 0.00 in    
Sea Level Pressure  
Sea Level Pressure 30.36 in    
Wind  
Wind Speed 5 mph (ENE)    
Max Wind Speed 14 mph    
Max Gust Speed 19 mph    
Visibility 10 miles    
Events      
T = Trace of Precipitation, MM = Missing Value Source: NWS Daily Summary

Daily Weather History Graph

Daily Weather History Graph

Search for Another Location

Airport or City:

Trip Planner

Search our weather history database for the weather conditions in past years. The results will help you decide how hot, cold, wet, or windy it might be!

Date:

Astronomy

Nov. 12, 2013 Rise Set
Actual Time 6:58 AM MST 5:22 PM MST
Civil Twilight 6:31 AM MST 5:49 PM MST
Nautical Twilight 6:01 AM MST 6:19 PM MST
Astronomical Twilight 5:31 AM MST 6:49 PM MST
Moon 2:29 PM MST (11/12) 2:03 AM MST (11/12)
Length of Visible Light 11h 17m
Length of Day
10h 23m
Waxing Gibbous, 77% of the Moon is Illuminated
Nov 12
Waxing Gibbous
Nov 17
Full
Nov 25
Last Quarter
Dec 2
New
Dec 9
First Quarter

Hourly Weather History & Observations

Time (MST) Temp. Windchill Dew Point Humidity Pressure Visibility Wind Dir Wind Speed Gust Speed Precip Events Conditions
12:57 AM 37.9 °F 30.9 °F 17.1 °F 43% 30.28 in 10.0 mi ENE 10.4 mph - N/A   Clear
1:57 AM 34.0 °F 29.8 °F 16.0 °F 48% 30.31 in 10.0 mi East 4.6 mph - N/A   Clear
2:57 AM 32.0 °F 27.5 °F 15.1 °F 50% 30.33 in 10.0 mi NNE 4.6 mph - N/A   Clear
3:57 AM 34.0 °F 31.0 °F 15.1 °F 46% 30.32 in 10.0 mi ENE 3.5 mph - N/A   Clear
4:57 AM 28.0 °F 20.0 °F 14.0 °F 56% 30.37 in 10.0 mi NE 8.1 mph - N/A   Clear
5:57 AM 30.0 °F - 15.1 °F 54% 30.41 in 10.0 mi Calm Calm - N/A   Clear
6:57 AM 27.0 °F - 15.1 °F 61% 30.46 in 10.0 mi Calm Calm - N/A   Clear
7:57 AM 36.0 °F - 17.1 °F 46% 30.46 in 10.0 mi Calm Calm - N/A   Clear
8:57 AM 51.1 °F - 17.1 °F 26% 30.43 in 10.0 mi ENE 5.8 mph - N/A   Clear
9:57 AM 53.1 °F - 17.1 °F 24% 30.43 in 10.0 mi ENE 11.5 mph - N/A   Clear
10:57 AM 55.9 °F - 17.1 °F 22% 30.39 in 10.0 mi ENE 8.1 mph - N/A   Clear
11:57 AM 57.9 °F - 16.0 °F 19% 30.33 in 10.0 mi East 8.1 mph - N/A   Clear
12:57 PM 59.0 °F - 16.0 °F 19% 30.31 in 10.0 mi East 11.5 mph - N/A   Clear
1:57 PM 59.0 °F - 15.1 °F 18% 30.30 in 10.0 mi East 11.5 mph - N/A   Clear
2:57 PM 57.0 °F - 16.0 °F 20% 30.32 in 10.0 mi ENE 10.4 mph - N/A   Clear
3:57 PM 54.0 °F - 16.0 °F 22% 30.33 in 10.0 mi ENE 8.1 mph - N/A   Clear
4:57 PM 48.9 °F - 19.9 °F 32% 30.37 in 10.0 mi East 5.8 mph - N/A   Clear
5:57 PM 46.9 °F - 19.0 °F 33% 30.37 in 10.0 mi NE 4.6 mph - N/A   Clear
6:57 PM 42.1 °F 40.2 °F 19.0 °F 40% 30.42 in 10.0 mi NE 3.5 mph - N/A   Clear
7:57 PM 39.9 °F - 17.1 °F 40% 30.40 in 10.0 mi Calm Calm - N/A   Clear
8:57 PM 39.0 °F - 17.1 °F 41% 30.33 in 10.0 mi Calm Calm - N/A   Clear
9:57 PM 36.0 °F - 17.1 °F 46% 30.34 in 10.0 mi Calm Calm - N/A   Clear
10:57 PM 34.0 °F 29.8 °F 17.1 °F 50% 30.33 in 10.0 mi East 4.6 mph - N/A   Clear
11:57 PM 34.0 °F - 17.1 °F 50% 30.31 in 10.0 mi Calm Calm - N/A   Clear